Regional Weather Roundup
Issued by NWS Little Rock, AR

Home | Current Version | Previous Version | Text Only | Print | Product List | Glossary Off
Versions: 1 2 3 4 5 6 7 8 9 10 11 12 13 14 15 16 17 18 19 20 21 22 23 24 25 26 27

000
ASUS44 KLZK 290405
RWRLZK

WEATHER ROUNDUP FOR ARKANSAS
NATIONAL WEATHER SERVICE LITTLE ROCK AR
1100 PM CDT THU APR 28 2016

NOTE: "FAIR" INDICATES FEW OR NO CLOUDS BELOW 12,000 FEET WITH NO
SIGNIFICANT WEATHER AND/OR OBSTRUCTIONS TO VISIBILITY.

ARZ001-003-010-029-290500-
NORTHWEST ARKANSAS

CITY           SKY/WX    TMP DP  RH WIND       PRES   REMARKS
FAYETTEVILLE   CLOUDY    56  52  86 CALM      29.97R
FORT SMITH     CLOUDY    68  49  50 NE5       29.91S
HARRISON       CLOUDY    59  45  59 CALM      29.99S
BENTONVILLE    CLOUDY    63  45  51 E7        29.97S
ROGERS         CLOUDY    62  46  55 E9        29.98S
SILOAM SPGS    CLOUDY    63  45  51 E3        29.96S
HIGHFILL       CLOUDY    62  49  62 E7        29.96S
$$

ARZ004-005-016-290500-
NORTH CENTRAL ARKANSAS

CITY           SKY/WX    TMP DP  RH WIND       PRES   REMARKS
BATESVILLE     CLEAR     59  52  77 CALM      29.98S
FLIPPIN        CLOUDY   N/A N/A N/A N5        29.95S
MTN HOME       CLOUDY    64  46  52 CALM      29.97S
$$

ARZ040-041-290500-
WEST CENTRAL ARKANSAS

CITY           SKY/WX    TMP DP  RH WIND       PRES   REMARKS
MENA           CLOUDY    61  57  88 W3        29.95R
MOUNT IDA      CLOUDY    61  55  81 CALM      29.91S
$$

ARZ009-017-025-026-028-290500-
NORTHEAST ARKANSAS

CITY           SKY/WX    TMP DP  RH WIND       PRES   REMARKS
CORNING          N/A     64  57  77 CALM      29.99S
JONESBORO      CLEAR     61  52  72 N6        29.97S
NEWPORT        CLEAR     67  54  63 E5        29.98S
WALNUT RIDGE   CLEAR     64  55  72 E5        29.98S
BLYTHEVILLE    CLEAR     67  49  52 E3        29.99R
$$

ARZ022-023-033-042-044-290500-
CENTRAL ARKANSAS

CITY           SKY/WX    TMP DP  RH WIND       PRES   REMARKS
LITTLE ROCK    PTCLDY    69  54  58 NE5       29.93S
N LITTLE ROCK    N/A     68  55  63 E5        29.92S
JACKSONVILLE   PTCLDY    61  57  86 E1        29.93S
SEARCY         CLEAR     61  57  88 N6        29.96F
HOT SPRINGS    CLOUDY    67  53  61 E6        29.93S
RUSSELLVILLE   CLOUDY    65  52  62 E3        29.93S
$$

ARZ036-290500-
EAST ARKANSAS

CITY           SKY/WX    TMP DP  RH WIND       PRES   REMARKS
WEST MEMPHIS   CLEAR     63  56  78 CALM      29.96S
$$

ARZ050-053-066-070-073-290500-
SOUTHWEST ARKANSAS

CITY           SKY/WX    TMP DP  RH WIND       PRES   REMARKS
ARKADELPHIA    FAIR      65  65 100 CALM      29.92S
CAMDEN         CLEAR     64  55  72 CALM      29.91S
TEXARKANA      CLEAR     68  58  70 E3        29.89S
EL DORADO      CLEAR     66  61  84 CALM      29.90S
DE QUEEN       PTCLDY    63  59  87 E3        29.88S
$$

ARZ056-057-069-290500-
SOUTHEAST ARKANSAS

CITY           SKY/WX    TMP DP  RH WIND       PRES   REMARKS
PINE BLUFF     CLEAR     67  57  70 E5        29.92F
STUTTGART      PTCLDY    70  54  56 MISG      29.94F
MONTICELLO     PTCLDY    65  61  87 CALM      29.92S

$$






USA.gov is the U.S. government's official web portal to all federal, state and local government web resources and services.